Location: Arborea
(39.7744°N, 8.5819°E)
Time: 04:14:35
(UTC+00:00)

Okean-O - Pass Details

Date: 24 October 2021
Orbit: 638 x 640 km, 98.2° (Epoch: 29 November)

Event Time Altitude Azimuth Distance (km) Brightness Sun altitude
Exits shadow 18:02:47 29° 53° (NE) 1,181 3.5 -17.8°
Drops below altitude 10° 18:06:01 10° 9° (N) 2,039 5.1 -18.4°
Sets 18:08:26 0° 359° (N) 2,953 6.1 -18.9°
